Tracking 29892 objects as of 21-Nov-2024
HD Live streaming from Space Station
objects crossing your sky now

STARLINK-3650

Track STARLINK-3650 now!
10-day predictions
STARLINK-3650 is classified as:


NORAD ID: 51982
Int'l Code: 2022-025AC
Perigee: 468.6 km
Apogee: 470.2 km
Inclination: 53.2 °
Period: 93.8 minutes
Semi major axis: 6840 km
RCS: Unknown
Launch date: March 9, 2022
Source: United States (US)
Launch site: AIR FORCE EASTERN TEST RANGE (AFETR)
Your satellite tracking list
Your tracking list is empty




NASA's NSSDC Master Catalog

Two Line Element Set (TLE):
1 51982U 22025AC  24325.91668981  .01236761  00000-0  33436-1 0  9996
2 51982  53.2142   4.9513 0001152  92.7505  90.6239 15.34537039  5759
Source of the keplerian elements: AFSPC